H1 CPF 2 NER 2025 12 1 9 335 01 glonass139 H2 1808601 9139 43687 2025 12 1 0 0 0 2025 12 4 23 45 0 900 1 1 0 0 0 1 H9 10 0 61010 0.00000 0 15157452.710 -3161069.458 -20255711.151 10 0 61010 900.00000 0 13550856.561 -1137933.422 -21566434.552 10 0 61010 1800.00000 0 12019294.140 1108717.109 -22457716.654 10 0 61010 2700.00000 0 10612292.116 3531680.325 -22912246.734 10 0 61010 3600.00000 0 9370717.223 6075144.581 -22921215.973 10 0 61010 4500.00000 0 8325161.173 8676781.970 -22484486.471 10 0 61010 5400.00000 0 7494775.822 11270122.982 -21610591.161 10 0 61010 6300.00000 0 6886606.639 13787113.834 -20316564.795 10 0 61010 7200.00000 0 6495451.479 16160750.303 -18627609.458 10 0 61010 8100.00000 0 6304249.443 18327678.768 -16576601.163 10 0 61010 9000.00000 0 6284982.368 20230656.392 -14203447.163 10 0 61010 9900.00000 0 6400049.833 21820768.236 -11554306.521 10 0 61010 10800.00000 0 6604058.620 23059309.230 -8680689.203 10 0 61010 11700.00000 0 6845950.128 23919252.928 -5638451.344 10 0 61010 12600.00000 0 7071374.929 24386246.285 -2486706.532 10 0 61010 13500.00000 0 7225213.344 24459089.664 713325.393 10 0 61010 14400.00000 0 7254134.765 24149682.847 3899509.307 10 0 61010 15300.00000 0 7109086.954 23482440.327 7010001.952 10 0 61010 16200.00000 0 6747609.633 22493201.396 9984451.589 10 0 61010 17100.00000 0 6135874.261 21227681.633 12765166.710 10 0 61010 18000.00000 0 5250363.576 19739531.537 15298231.164 10 0 61010 18900.00000 0 4079119.718 18088084.152 17534544.359 10 0 61010 19800.00000 0 2622507.985 16335886.291 19430766.888 10 0 61010 20700.00000 0 893463.496 14546116.639 20950153.913 10 0 61010 21600.00000 0 -1082790.365 12779998.283 22063260.969 10 0 61010 22500.00000 0 -3269541.010 11094313.165 22748509.342 10 0 61010 23400.00000 0 -5619871.071 9539121.393 22992600.780 10 0 61010 24300.00000 0 -8078376.069 8155779.637 22790774.064 10 0 61010 25200.00000 0 -10583245.364 6975340.323 22146898.747 10 0 61010 26100.00000 0 -13068621.341 6017397.530 21073404.185 10 0 61010 27000.00000 0 -15467140.224 5289427.021 19591044.891 10 0 61010 27900.00000 0 -17712550.184 4786647.384 17728506.062 10 0 61010 28800.00000 0 -19742298.835 4492407.713 15521856.087 10 0 61010 29700.00000 0 -21499983.129 4379085.293 13013855.639 10 0 61010 30600.00000 0 -22937559.915 4409455.490 10253135.761 10 0 61010 31500.00000 0 -24017224.962 4538476.089 7293260.073 10 0 61010 32400.00000 0 -24712881.697 4715410.753 4191688.663 10 0 61010 33300.00000 0 -25011137.800 4886201.708 1008663.434 10 0 61010 34200.00000 0 -24911787.418 4995990.935 -2193963.404 10 0 61010 35100.00000 0 -24427758.296 4991682.537 -5353934.640 10 0 61010 36000.00000 0 -23584525.702 4824436.954 -8409803.221 10 0 61010 36900.00000 0 -22419017.595 4451990.343 -11302132.861 10 0 61010 37800.00000 0 -20978057.041 3840699.701 -13974660.031 10 0 61010 38700.00000 0 -19316407.519 2967225.903 -16375393.998 10 0 61010 39600.00000 0 -17494503.555 1819782.122 -18457632.912 10 0 61010 40500.00000 0 -15575962.327 398893.587 -20180875.774 10 0 61010 41400.00000 0 -13624981.005 -1282364.708 -21511612.383 10 0 61010 42300.00000 0 -11703729.169 -3198663.578 -22423975.858 10 0 61010 43200.00000 0 -9869845.654 -5313237.276 -22900245.226 10 0 61010 44100.00000 0 -8174144.436 -7579189.938 -22931188.563 10 0 61010 45000.00000 0 -6658625.218 -9941237.046 -22516240.266 10 0 61010 45900.00000 0 -5354871.304 -12337809.878 -21663509.319 10 0 61010 46800.00000 0 -4282900.923 -14703435.674 -20389618.580 10 0 61010 47700.00000 0 -3450519.032 -16971294.624 -18719378.326 10 0 61010 48600.00000 0 -2853195.516 -19075847.352 -16685300.534 10 0 61010 49500.00000 0 -2474473.516 -20955423.526 -14326963.309 10 0 61010 50400.00000 0 -2286889.347 -22554663.734 -11690237.900 10 0 61010 51300.00000 0 -2253363.894 -23826712.856 -8826393.428 10 0 61010 52200.00000 0 -2329005.523 -24735073.537 -5791096.845 10 0 61010 53100.00000 0 -2463247.234 -25255042.542 -2643327.884 10 0 61010 54000.00000 0 -2602226.700 -25374670.361 555769.597 10 0 61010 54900.00000 0 -2691307.705 -25095204.450 3744077.173 10 0 61010 55800.00000 0 -2677635.611 -24430998.203 6859708.806 10 0 61010 56700.00000 0 -2512618.235 -23408890.221 9842211.449 10 0 61010 57600.00000 0 -2154226.841 -22067080.633 12633735.860 10 0 61010 58500.00000 0 -1569019.731 -20453552.149 15180154.912 10 0 61010 59400.00000 0 -733802.758 -18624102.469 17432107.994 10 0 61010 60300.00000 0 363143.548 -16640070.544 19345951.741 10 0 61010 61200.00000 0 1721322.272 -14565851.716 20884599.352 10 0 61010 62100.00000 0 3327795.633 -12466305.115 22018233.007 10 0 61010 63000.00000 0 5157487.973 -10404160.839 22724876.439 10 0 61010 63900.00000 0 7174004.618 -8437534.147 22990817.265 10 0 61010 64800.00000 0 9330933.715 -6617649.203 22810871.481 10 0 61010 65700.00000 0 11573578.206 -4986866.067 22188485.270 10 0 61010 66600.00000 0 13841047.272 -3577092.088 21135672.114 10 0 61010 67500.00000 0 16068621.621 -2408642.888 19672786.098 10 0 61010 68400.00000 0 18190295.508 -1489599.626 17828135.115 10 0 61010 69300.00000 0 20141390.654 -815688.726 15637440.622 10 0 61010 70200.00000 0 21861133.920 -370688.569 13143153.454 10 0 61010 71100.00000 0 23295091.616 -127345.728 10393637.938 10 0 61010 72000.00000 0 24397358.806 -48761.948 7442239.336 10 0 61010 72900.00000 0 25132411.797 -90193.194 4346252.061 10 0 61010 73800.00000 0 25476545.721 -201184.559 1165808.367 10 0 61010 74700.00000 0 25418836.261 -327950.392 -2037290.911 10 0 61010 75600.00000 0 24961584.475 -415898.381 -5200780.530 10 0 61010 76500.00000 0 24120225.350 -412189.945 -8263146.048 10 0 61010 77400.00000 0 22922703.421 -268227.583 -11164825.657 10 0 61010 78300.00000 0 21408341.330 58037.276 -13849374.566 10 0 61010 79200.00000 0 19626248.690 600074.800 -16264568.561 10 0 61010 80100.00000 0 17633338.060 1381112.748 -18363424.656 10 0 61010 81000.00000 0 15492031.409 2412909.501 -20105118.583 10 0 61010 81900.00000 0 13267753.315 3695017.153 -21455781.092 10 0 61010 82800.00000 0 11026316.077 5214566.871 -22389157.512 10 0 61010 83700.00000 0 8831306.119 6946586.661 -22887117.931 10 0 61010 84600.00000 0 6741580.799 8854839.202 -22940008.320 10 0 61010 85500.00000 0 4808979.889 10893145.474 -22546836.038 10 0 61011 0.00000 0 3076346.825 13007139.329 -21715286.505 10 0 61011 900.00000 0 1575940.656 15136381.315 -20461570.397 10 0 61011 1800.00000 0 328306.267 17216741.018 -18810105.678 10 0 61011 2700.00000 0 -658354.259 19182952.397 -16793039.264 10 0 61011 3600.00000 0 -1388281.892 20971232.725 -14449618.634 10 0 61011 4500.00000 0 -1877730.798 22521856.860 -11825425.311 10 0 61011 5400.00000 0 -2154027.865 23781579.033 -8971485.238 10 0 61011 6300.00000 0 -2254162.739 24705800.901 -5943273.479 10 0 61011 7200.00000 0 -2222969.209 25260395.111 -2799632.898 10 0 61011 8100.00000 0 -2110976.030 25423108.208 398371.865 10 0 61011 9000.00000 0 -1972019.071 25184484.317 3588642.483 10 0 61011 9900.00000 0 -1860716.663 24548271.257 6709253.573 10 0 61011 10800.00000 0 -1829915.587 23531292.532 9699654.175 10 0 61011 11700.00000 0 -1928216.186 22162790.993 12501840.587 10 0 61011 12600.00000 0 -2197681.526 20483272.123 15061477.788 10 0 61011 13500.00000 0 -2671827.544 18542895.664 17328947.985 10 0 61011 14400.00000 0 -3373979.151 16399482.938 19260306.428 10 0 61011 15300.00000 0 -4316061.743 14116223.001 20818126.609 10 0 61011 16200.00000 0 -5497879.334 11759172.930 21972219.280 10 0 61011 17100.00000 0 -6906910.165 9394655.745 22700212.171 10 0 61011 18000.00000 0 -8518629.182 7086663.440 22987979.910 10 0 61011 18900.00000 0 -10297344.940 4894372.083 22829916.385 10 0 61011 19800.00000 0 -12197517.208 2869871.180 22229044.576 10 0 61011 20700.00000 0 -14165501.657 1056200.562 21196961.718 10 0 61011 21600.00000 0 -16141650.249 -514224.662 19753620.515 10 0 61011 22500.00000 0 -18062681.053 -1820736.478 17926950.030 10 0 61011 23400.00000 0 -19864219.760 -2855037.746 15752322.718 10 0 61011 24300.00000 0 -21483407.642 -3621301.980 13271877.009 10 0 61011 25200.00000 0 -22861467.541 -4135745.588 10533707.533 10 0 61011 26100.00000 0 -23946120.649 -4425690.875 7590937.903 10 0 61011 27000.00000 0 -24693752.681 -4528159.674 4500693.374 10 0 61011 27900.00000 0 -25071238.073 -4488057.216 1322992.967 10 0 61011 28800.00000 0 -25057344.876 -4356023.346 -1880417.438 10 0 61011 29700.00000 0 -24643660.443 -4186042.510 -5047268.076 10 0 61011 30600.00000 0 -23834998.072 -4032914.314 -8115980.493 10 0 61011 31500.00000 0 -22649266.692 -3949692.612 -11026870.559 10 0 61011 32400.00000 0 -21116808.321 -3985202.537 -13723315.191 10 0 61011 33300.00000 0 -19279230.640 -4181741.655 -16152859.373 10 0 61011 34200.00000 0 -17187783.340 -4573063.619 -18268241.307 10 0 61011 35100.00000 0 -14901346.151 -5182730.671 -20028315.356 10 0 61011 36000.00000 0 -12484112.764 -6022905.644 -21398854.616 10 0 61011 36900.00000 0 -10003067.523 -7093635.429 -22353217.483 10 0 61011 37800.00000 0 -7525360.273 -8382657.023 -22872865.411 10 0 61011 38700.00000 0 -5115688.772 -9865735.196 -22947722.026 10 0 61011 39600.00000 0 -2833797.588 -11507518.327 -22576366.914 10 0 61011 40500.00000 0 -732197.228 -13262877.170 -21766060.572 10 0 61011 41400.00000 0 1145802.131 -15078670.975 -20532600.255 10 0 61011 42300.00000 0 2767661.270 -16895867.334 -18900009.658 10 0 61011 43200.00000 0 4112722.502 -18651927.279 -16900068.538 10 0 61011 44100.00000 0 5172815.241 -20283355.879 -14571691.459 10 0 61011 45000.00000 0 5952332.693 -21728311.523 -11960167.768 10 0 61011 45900.00000 0 6467778.120 -22929164.526 -9116277.672 10 0 61011 46800.00000 0 6746801.412 -23834897.721 -6095301.721 10 0 61011 47700.00000 0 6826768.092 -24403248.253 -2955943.247 10 0 61011 48600.00000 0 6752922.584 -24602500.672 240814.995 10 0 61011 49500.00000 0 6576224.568 -24412856.109 3432897.394 10 0 61011 50400.00000 0 6350950.930 -23827320.151 6558341.775 10 0 61011 51300.00000 0 6132165.506 -22852072.331 9556501.720 10 0 61011 52200.00000 0 5973164.185 -21506301.951 12369221.378 10 0 61011 53100.00000 0 5923003.712 -19821517.293 14941959.983 10 0 61011 54000.00000 0 6024218.753 -17840357.260 17224844.495 10 0 61011 54900.00000 0 6310823.602 -15614955.078 19173630.459 10 0 61011 55800.00000 0 6806682.803 -13204922.177 20750553.063 10 0 61011 56700.00000 0 7524319.344 -10675035.857 21925052.713 10 0 61011 57600.00000 0 8464210.767 -8092726.304 22674361.901 10 0 61011 58500.00000 0 9614603.190 -5525466.602 22983942.701 10 0 61011 59400.00000 0 10951851.724 -3038173.112 22847767.016 10 0 61011 60300.00000 0 12441274.005 -690722.963 22268434.457 10 0 61011 61200.00000 0 14038482.250 1464309.414 21257125.570 10 0 61011 62100.00000 0 15691139.400 3383603.897 19833391.001 10 0 61011 63000.00000 0 17341067.229 5034654.367 18024780.064 10 0 61011 63900.00000 0 18926619.395 6396872.491 15866315.069 10 0 61011 64800.00000 0 20385221.118 7462190.353 13399820.663 10 0 61011 65700.00000 0 21655969.805 8235137.435 10673120.163 10 0 61011 66600.00000 0 22682187.893 8732389.213 7739113.661 10 0 61011 67500.00000 0 23413820.692 8981806.804 4654755.139 10 0 61011 68400.00000 0 23809578.115 9021008.497 1479948.041 10 0 61011 69300.00000 0 23838729.463 8895533.832 -1723619.228 10 0 61011 70200.00000 0 23482474.838 8656678.310 -4893675.021 10 0 61011 71100.00000 0 22734834.374 8359090.890 -7968579.538 10 0 61011 72000.00000 0 21603016.812 8058236.691 -10888528.942 10 0 61011 72900.00000 0 20107250.858 7807833.156 -13596724.356 10 0 61011 73800.00000 0 18280085.562 7657369.111 -16040482.293 10 0 61011 74700.00000 0 16165188.404 7649812.651 -18172264.296 10 0 61011 75600.00000 0 13815690.946 7819605.713 -19950605.335 10 0 61011 76500.00000 0 11292150.981 8191030.943 -21340922.678 10 0 61011 77400.00000 0 8660216.167 8777020.612 -22316189.479 10 0 61011 78300.00000 0 5988086.481 9578458.495 -22857460.092 10 0 61011 79200.00000 0 3343881.128 10584004.784 -22954237.169 10 0 61011 80100.00000 0 793019.333 11770451.921 -22604673.660 10 0 61011 81000.00000 0 -1604276.329 13103596.860 -21815606.066 10 0 61011 81900.00000 0 -3795250.760 14539593.509 -20602418.543 10 0 61011 82800.00000 0 -5736567.522 16026728.820 -18988740.615 10 0 61011 83700.00000 0 -7395860.110 17507548.177 -17005984.477 10 0 61011 84600.00000 0 -8752819.851 18921240.948 -14692730.903 10 0 61011 85500.00000 0 -9799776.379 20206186.036 -12093975.733 10 0 61012 0.00000 0 -10541747.914 21302550.336 -9260251.941 10 0 61012 900.00000 0 -10995961.246 22154831.341 -6246642.905 10 0 61012 1800.00000 0 -11190862.316 22714235.424 -3111710.179 10 0 61012 2700.00000 0 -11164661.947 22940793.606 83648.146 10 0 61012 3600.00000 0 -10963478.439 22805124.183 3277382.178 10 0 61012 4500.00000 0 -10639157.100 22289768.646 6407496.137 10 0 61012 5400.00000 0 -10246859.736 21390044.589 9413251.423 10 0 61012 6300.00000 0 -9842526.648 20114379.769 12236343.366 10 0 61012 7200.00000 0 -9480318.817 18484113.260 14822028.752 10 0 61012 8100.00000 0 -9210148.463 16532771.949 17120182.507 10 0 61012 9000.00000 0 -9075402.174 14304852.398 19086263.529 10 0 61012 9900.00000 0 -9110952.452 11854158.598 20682171.546 10 0 61012 10800.00000 0 -9341541.240 9241764.355 21876979.193 10 0 61012 11700.00000 0 -9780603.312 6533684.343 22647525.961 10 0 61012 12600.00000 0 -10429579.014 3798349.698 22978863.202 10 0 61012 13500.00000 0 -11277745.465 1103991.880 22864542.208 10 0 61012 14400.00000 0 -12302573.837 -1483957.890 22306740.074 10 0 61012 15300.00000 0 -13470598.488 -3905346.932 21316220.947 10 0 61012 16200.00000 0 -14738762.527 -6107555.545 19912133.103 10 0 61012 17100.00000 0 -16056184.505 -8047435.087 18121645.188 10 0 61012 18000.00000 0 -17366273.277 -9692850.090 15979427.868 10 0 61012 18900.00000 0 -18609103.334 -11023761.018 13526989.956 10 0 61012 19800.00000 0 -19723951.658 -12032803.186 10811880.929 10 0 61012 20700.00000 0 -20651890.001 -12725338.137 7886774.452 10 0 61012 21600.00000 0 -21338323.650 -13118975.795 4808450.019 10 0 61012 22500.00000 0 -21735369.564 -13242587.877 1636692.093 10 0 61012 23400.00000 0 -21803973.064 -13134854.504 -1566871.918 10 0 61012 24300.00000 0 -21515672.967 -12842405.778 -4739972.047 10 0 61012 25200.00000 0 -20853939.629 -12417637.357 -7820910.696 10 0 61012 26100.00000 0 -19815028.294 -11916293.037 -10749767.788 10 0 61012 27000.00000 0 -18408310.560 -11394917.301 -13469571.987 10 0 61012 27900.00000 0 -16656068.856 -10908286.423 -15927414.471 10 0 61012 28800.00000 0 -14592761.552 -10506927.566 -18075482.973 10 0 61012 29700.00000 0 -12263788.679 -10234831.551 -19871995.544 10 0 61012 30600.00000 0 -9723809.280 -10127456.605 -21282015.652 10 0 61012 31500.00000 0 -7034680.265 -10210107.988 -22278132.714 10 0 61012 32400.00000 0 -4263102.416 -10496762.298 -22840994.941 10 0 61012 33300.00000 0 -1478071.312 -10989386.386 -22959684.414 10 0 61012 34200.00000 0 1251760.963 -11677779.833 -22631927.318 10 0 61012 35100.00000 0 3860703.956 -12539947.803 -21864135.577 10 0 61012 36000.00000 0 6288518.447 -13542988.699 -20671279.252 10 0 61012 36900.00000 0 8482674.533 -14644459.349 -19076592.342 10 0 61012 37800.00000 0 10400285.074 -15794160.297 -17111117.806 10 0 61012 38700.00000 0 12009634.952 -16936266.057 -14813100.653 10 0 61012 39600.00000 0 13291243.544 -18011710.573 -12227240.962 10 0 61012 40500.00000 0 14238417.396 -18960727.320 -9403821.427 10 0 61012 41400.00000 0 14857271.500 -19725436.888 -6397726.505 10 0 61012 42300.00000 0 15166219.856 -20252372.804 -3267372.516 10 0 61012 43200.00000 0 15194958.332 -20494838.951 -73569.782 10 0 61012 44100.00000 0 14982984.136 -20414999.021 3121660.704 10 0 61012 45000.00000 0 14577715.682 -19985609.779 6256292.692 10 0 61012 45900.00000 0 14032293.237 -19191324.977 9269498.446 10 0 61012 46800.00000 0 13403154.089 -18029514.889 12102827.314 10 0 61012 47700.00000 0 12747485.076 -16510566.813 14701336.217 10 0 61012 48600.00000 0 12120660.268 -14657653.678 17014650.312 10 0 61012 49500.00000 0 11573771.806 -12505980.038 18997933.769 10 0 61012 50400.00000 0 11151357.746 -10101536.465 20612752.393 10 0 61012 51300.00000 0 10889422.170 -7499413.619 21827812.196 10 0 61012 52200.00000 0 10813830.472 -4761745.292 22619560.421 10 0 61012 53100.00000 0 10939146.898 -1955364.955 22972638.075 10 0 61012 54000.00000 0 11267962.992 850728.099 22880175.848 10 0 61012 54900.00000 0 11790745.187 3587989.151 22343927.997 10 0 61012 55800.00000 0 12486208.226 6190927.609 21374241.638 10 0 61012 56700.00000 0 13322199.315 8599579.143 19989861.777 10 0 61012 57600.00000 0 14257056.662 10761749.011 18217575.257 10 0 61012 58500.00000 0 15241386.210 12634934.310 16091699.731 10 0 61012 59400.00000 0 16220182.801 14187846.041 13653426.612 10 0 61012 60300.00000 0 17135207.338 15401468.192 10950029.775 10 0 61012 61200.00000 0 17927520.385 16269610.069 8033954.499 10 0 61012 62100.00000 0 18540065.742 16798929.157 4961803.663 10 0 61012 63000.00000 0 18920194.910 17008423.868 1793240.468 10 0 61012 63900.00000 0 19022025.438 16928417.799 -1410171.067 10 0 61012 64800.00000 0 18808532.823 16599078.682 -4586165.086 10 0 61012 65700.00000 0 18253286.539 16068534.874 -7672988.611 10 0 61012 66600.00000 0 17341755.686 15390669.497 -10610607.674 10 0 61012 67500.00000 0 16072127.836 14622686.002 -13341880.691 10 0 61012 68400.00000 0 14455605.200 13822548.743 -15813675.567 10 0 61012 69300.00000 0 12516164.385 13046407.380 -17977908.134 10 0 61012 70200.00000 0 10289788.688 12346114.584 -19792481.306 10 0 61012 71100.00000 0 7823204.101 11766942.392 -21222106.422 10 0 61012 72000.00000 0 5172171.148 11345594.003 -22238990.743 10 0 61012 72900.00000 0 2399403.251 11108595.136 -22823377.833 10 0 61012 73800.00000 0 -427802.119 11071132.848 -22963930.566 10 0 61012 74700.00000 0 -3240121.216 11236390.724 -22657949.560 10 0 61012 75600.00000 0 -5968844.766 11595408.288 -21911423.084 10 0 61012 76500.00000 0 -8548492.292 12127470.369 -20738907.695 10 0 61012 77400.00000 0 -10919291.807 12801009.753 -19163242.069 10 0 61012 78300.00000 0 -13029422.381 13574984.838 -17215099.703 10 0 61012 79200.00000 0 -14836927.013 14400673.962 -14932389.187 10 0 61012 80100.00000 0 -16311217.012 15223810.474 -12359513.785 10 0 61012 81000.00000 0 -17434106.237 15986968.206 -9546504.748 10 0 61012 81900.00000 0 -18200333.256 16632096.415 -6548045.361 10 0 61012 82800.00000 0 -18617550.918 17103096.871 -3422404.920 10 0 61012 83700.00000 0 -18705785.273 17348334.005 -230303.690 10 0 61012 84600.00000 0 -18496388.042 17322971.875 2966268.759 10 0 61012 85500.00000 0 -18030528.072 16991039.003 6105258.453 10 0 61013 0.00000 0 -17357286.598 16327133.827 9125751.177 10 0 61013 900.00000 0 -16531437.170 15317698.213 11969153.927 10 0 61013 1800.00000 0 -15611005.425 13961806.044 14580326.651 10 0 61013 2700.00000 0 -14654710.711 12271432.247 16908647.946 10 0 61013 3600.00000 0 -13719398.253 10271191.258 18908990.393 10 0 61013 4500.00000 0 -12857569.339 7997554.953 20542588.880 10 0 61013 5400.00000 0 -12115113.063 5497581.958 21777785.583 10 0 61013 6300.00000 0 -11529334.299 2827210.315 22590637.970 10 0 61013 7200.00000 0 -11127360.131 49183.418 22965378.815 10 0 61013 8100.00000 0 -10924991.049 -2769305.850 22894719.885 10 0 61013 9000.00000 0 -10926044.700 -5559156.412 22379993.793 10 0 61013 9900.00000 0 -11122219.557 -8251981.595 21431131.312 10 0 61013 10800.00000 0 -11493484.295 -10782705.603 20066474.325 10 0 61013 11700.00000 0 -12008976.830 -13092027.307 18312427.472 10 0 61013 12600.00000 0 -12628375.761 -15128650.045 16202954.466 10 0 61013 13500.00000 0 -13303687.145 -16851185.489 13778927.896 10 0 61013 14400.00000 0 -13981372.006 -18229652.928 11087344.157 10 0 61013 15300.00000 0 -14604725.394 -19246511.741 8180417.879 10 0 61013 16200.00000 0 -15116406.947 -19897184.207 5114572.747 10 0 61013 17100.00000 0 -15461016.073 -20190046.881 1949347.864 10 0 61013 18000.00000 0 -15587602.597 -20145891.071 -1253759.173 10 0 61013 18900.00000 0 -15452006.088 -19796875.289 -4432489.815 10 0 61013 19800.00000 0 -15018923.981 -19185014.077 -7525039.016 10 0 61013 20700.00000 0 -14263619.867 -18360267.281 -10471262.292 10 0 61013 21600.00000 0 -13173198.439 -17378310.886 -13213851.218 10 0 61013 22500.00000 0 -11747391.850 -16298084.033 -15699453.772 10 0 61013 23400.00000 0 -9998822.916 -15179216.341 -17879717.093 10 0 61013 24300.00000 0 -7952732.745 -14079444.610 -19712231.918 10 0 61013 25200.00000 0 -5646182.985 -13052128.342 -21161360.074 10 0 61013 26100.00000 0 -3126765.048 -12143969.074 -22198928.856 10 0 61013 27000.00000 0 -450869.418 -11393029.777 -22804778.885 10 0 61013 27900.00000 0 2318413.499 -10827137.614 -22967155.024 10 0 61013 28800.00000 0 5113674.047 -10462737.083 -22682933.015 10 0 61013 29700.00000 0 7865746.911 -10304241.374 -21957677.693 10 0 61013 30600.00000 0 10506351.465 -10343908.746 -20805531.899 10 0 61013 31500.00000 0 12970699.427 -10562248.533 -19248938.353 10 0 61013 32400.00000 0 15199961.890 -10928939.042 -17318200.056 10 0 61013 33300.00000 0 17143493.592 -11404218.054 -15050887.739 10 0 61013 34200.00000 0 18760722.427 -11940686.667 -12491105.973 10 0 61013 35100.00000 0 20022626.223 -12485449.795 -9688632.264 10 0 61013 36000.00000 0 20912736.101 -12982502.418 -6697945.997 10 0 61013 36900.00000 0 21427625.530 -13375260.251 -3577166.353 10 0 61013 37800.00000 0 21576865.873 -13609127.449 -386920.159 10 0 61013 38700.00000 0 21382451.568 -13633992.418 2810837.993 10 0 61013 39600.00000 0 20877720.393 -13406545.889 5954030.012 10 0 61013 40500.00000 0 20105815.411 -12892323.006 8981659.259 10 0 61013 41400.00000 0 19117754.312 -12067382.941 11834992.614 10 0 61013 42300.00000 0 17970188.185 -10919554.865 14458696.649 10 0 61013 43200.00000 0 16722944.469 -9449197.437 16801906.080 10 0 61013 44100.00000 0 15436457.567 -7669439.372 18819204.189 10 0 61013 45000.00000 0 14169194.934 -5605890.315 20471496.820 10 0 61013 45900.00000 0 12975186.289 -3295833.287 21726763.756 10 0 61013 46800.00000 0 11901758.934 -786931.366 22560673.730 10 0 61013 47700.00000 0 10987573.379 1864498.706 22957051.888 10 0 61013 48600.00000 0 10261040.767 4595575.503 22908191.281 10 0 61013 49500.00000 0 9739187.644 7339219.141 22415002.699 10 0 61013 50400.00000 0 9427015.061 10026697.925 21487000.012 10 0 61013 51300.00000 0 9317378.477 12590251.094 20142121.088 10 0 61013 52200.00000 0 9391393.325 14965680.088 18406387.160 10 0 61013 53100.00000 0 9619349.318 17094801.670 16313406.525 10 0 61013 54000.00000 0 9962095.246 18927661.740 13903731.221 10 0 61013 54900.00000 0 10372836.347 20424418.212 11224078.219 10 0 61013 55800.00000 0 10799268.779 21556814.688 8326429.358 10 0 61013 56700.00000 0 11185961.330 22309183.512 5267026.809 10 0 61013 57600.00000 0 11476883.761 22678936.190 2105283.123 10 0 61013 58500.00000 0 11617974.579 22676520.568 -1097373.073 10 0 61013 59400.00000 0 11559639.082 22324846.520 -4278693.109 10 0 61013 60300.00000 0 11259071.065 21658204.382 -7376822.400 10 0 61013 61200.00000 0 10682298.883 20720721.792 -10331508.382 10 0 61013 62100.00000 0 9805868.005 19564424.279 -13085278.069 10 0 61013 63000.00000 0 8618087.563 18246981.669 -15584561.620 10 0 61013 63900.00000 0 7119786.785 16829235.788 -17780739.409 10 0 61013 64800.00000 0 5324548.018 15372614.021 -19631091.760 10 0 61013 65700.00000 0 3258405.122 13936538.059 -21099632.611 10 0 61013 66600.00000 0 959018.668 12575937.129 -22157810.781 10 0 61013 67500.00000 0 -1525638.627 11338970.384 -22785065.293 10 0 61013 68400.00000 0 -4139032.204 10265054.063 -22969224.176 10 0 61013 69300.00000 0 -6818179.397 9383275.964 -22706739.237 10 0 61013 70200.00000 0 -9496039.114 8711263.306 -22002752.532 10 0 61013 71100.00000 0 -12104078.463 8254550.770 -20870993.465 10 0 61013 72000.00000 0 -14574909.886 8006474.482 -19333508.698 10 0 61013 72900.00000 0 -16844889.427 7948595.379 -17420230.214 10 0 61013 73800.00000 0 -18856568.368 8051633.208 -15168389.976 10 0 61013 74700.00000 0 -20560896.506 8276870.835 -12621792.618 10 0 61013 75600.00000 0 -21919085.726 8577968.681 -9829960.378 10 0 61013 76500.00000 0 -22904056.736 8903111.887 -6847166.976 10 0 61013 77400.00000 0 -23501409.244 9197398.699 -3731379.529 10 0 61013 78300.00000 0 -23709875.929 9405368.440 -543129.293 10 0 61013 79200.00000 0 -23541242.174 9473561.574 2655666.419 10 0 61013 80100.00000 0 -23019736.063 9353003.113 5802907.867 10 0 61013 81000.00000 0 -22180915.298 9001503.945 8837518.359 10 0 61013 81900.00000 0 -21070098.762 8385682.495 11700627.983 10 0 61013 82800.00000 0 -19740409.447 7482621.024 14336712.526 10 0 61013 83700.00000 0 -18250511.461 6281086.385 16694665.717 10 0 61013 84600.00000 0 -16662136.348 4782263.356 18728784.380 10 0 61013 85500.00000 0 -15037502.458 2999969.154 20399648.010 99